Location: Navajo
(48.7922°N, 105.0603°W)
Time: 01:57:07
(UTC+00:00)

CUBEBUG 2 - Pass Details

Date: 07 July 2022
Orbit: 584 x 692 km, 97.7° (Epoch: 16 August)

Event Time Altitude Azimuth Distance (km) Brightness Sun altitude
Rises 09:25:46 0° 21° (NNE) 2,855 ? -12.1°
Reaches altitude 10° 09:28:05 10° 31° (NNE) 1,961 ? -11.8°
Maximum altitude 09:31:58 34° 97° (E) 1,027 ? -11.5°
Drops below altitude 10° 09:35:56 10° 162° (SSE) 2,001 ? -11.1°
Enters shadow 09:37:10 - 168° (SSE) 2,472 ? -11.0°
